Logansport, IN

6:18 PM EDT on August 17, 2017 (GMT -0400)
Logansport Municipal

Weather History for KGGP - December, 2012

Change the Weather History Date:

Sunday, December 16, 2012

  Actual Average Record
Temperature  
Mean Temperature 44 °F -  
Max Temperature 51 °F 45 °F 51 °F (2012)
Min Temperature 37 °F 26 °F 14 °F (2013)
Degree Days  
Heating Degree Days 21    
Moisture  
Dew Point 44 °F    
Average Humidity 90    
Maximum Humidity 94    
Minimum Humidity 82    
Precipitation  
Precipitation 0.00 in - - ()
Sea Level Pressure  
Sea Level Pressure 29.68 in    
Wind  
Wind Speed 11 mph (WSW)    
Max Wind Speed 15 mph    
Max Gust Speed 22 mph    
Visibility 8 miles    
Events      
Averages and records for this station are not official NWS values.
T = Trace of Precipitation, MM = Missing Value Source: NWS Daily Summary

Daily Weather History Graph

Daily Weather History Graph

Search for Another Location

Airport or City:

Trip Planner

Search our weather history database for the weather conditions in past years. The results will help you decide how hot, cold, wet, or windy it might be!

Date:

Astronomy

Dec. 16, 2012 Rise Set
Actual Time 8:03 AM EST 5:19 PM EST
Civil Twilight 7:32 AM EST 5:50 PM EST
Nautical Twilight 6:57 AM EST 6:24 PM EST
Astronomical Twilight 6:24 AM EST 6:58 PM EST
Moon 10:35 AM EST (12/16) 9:34 PM EST (12/16)
Length of Visible Light 10h 17m
Length of Day
9h 16m
Waxing Crescent, 16% of the Moon is Illuminated
Dec 16
Waxing Crescent
Dec 20
First Quarter
Dec 28
Full
Jan 4
Last Quarter
Jan 11
New

Hourly Weather History & Observations

Time (EST) Temp. Windchill Dew Point Humidity Pressure Visibility Wind Dir Wind Speed Gust Speed Precip Events Conditions
12:15 AM 51.8 °F - 50.0 °F 94% 29.67 in 10.0 mi SW 13.8 mph - N/A   Drizzle
12:55 AM 51.8 °F - 50.0 °F 94% 29.66 in 10.0 mi SSW 13.8 mph 19.6 mph N/A   Overcast
1:15 AM 51.8 °F - 50.0 °F 94% 29.66 in 10.0 mi SW 11.5 mph - N/A   Overcast
1:35 AM 51.8 °F - 50.0 °F 94% 29.66 in 10.0 mi SW 10.4 mph - N/A   Overcast
1:55 AM 51.8 °F - 50.0 °F 94% 29.66 in 10.0 mi SW 10.4 mph - N/A   Overcast
2:15 AM 51.8 °F - 50.0 °F 94% 29.66 in 10.0 mi SW 10.4 mph - N/A   Overcast
2:35 AM 51.8 °F - 50.0 °F 94% 29.66 in 10.0 mi SW 12.7 mph - N/A   Overcast
2:55 AM 51.8 °F - 50.0 °F 94% 29.66 in 10.0 mi SW 10.4 mph - N/A   Overcast
3:15 AM 51.8 °F - 50.0 °F 94% 29.66 in 10.0 mi SW 15.0 mph - N/A   Overcast
3:35 AM 51.8 °F - 50.0 °F 94% 29.66 in 10.0 mi SW 12.7 mph 21.9 mph N/A   Overcast
3:55 AM 51.8 °F - 50.0 °F 94% 29.66 in 10.0 mi SW 10.4 mph - N/A   Overcast
4:15 AM 51.8 °F - 50.0 °F 94% 29.66 in 10.0 mi SW 11.5 mph - N/A   Overcast
4:35 AM 51.8 °F - 50.0 °F 94% 29.66 in 10.0 mi SW 11.5 mph - N/A   Overcast
4:55 AM 51.8 °F - 48.2 °F 88% 29.66 in 10.0 mi SW 10.4 mph - N/A   Overcast
5:15 AM 51.8 °F - 48.2 °F 88% 29.65 in 10.0 mi SSW 11.5 mph - N/A   Overcast
5:35 AM 50.0 °F - 48.2 °F 94% 29.65 in 10.0 mi SW 10.4 mph - N/A   Overcast
5:55 AM 50.0 °F - 46.4 °F 87% 29.65 in 10.0 mi SW 12.7 mph - N/A   Overcast
6:15 AM 50.0 °F - 46.4 °F 87% 29.66 in 10.0 mi SW 11.5 mph - N/A   Overcast
6:35 AM 50.0 °F - 46.4 °F 87% 29.66 in 10.0 mi SW 10.4 mph - N/A   Overcast
6:55 AM 50.0 °F - 46.4 °F 87% 29.66 in 7.0 mi SW 10.4 mph - N/A   Overcast
7:15 AM 50.0 °F - 46.4 °F 87% 29.67 in 7.0 mi SW 10.4 mph - N/A   Overcast
7:35 AM 50.0 °F - 46.4 °F 87% 29.67 in 7.0 mi SW 10.4 mph - N/A   Overcast
8:15 AM 48.2 °F - 46.4 °F 93% 29.67 in 7.0 mi SW 11.5 mph - N/A   Overcast
8:35 AM 48.2 °F - 46.4 °F 93% 29.68 in 5.0 mi SW 10.4 mph - N/A   Overcast
8:55 AM 48.2 °F - 46.4 °F 93% 29.68 in 5.0 mi SW 9.2 mph - N/A   Overcast
9:15 AM 48.2 °F - 46.4 °F 93% 29.68 in 5.0 mi SW 9.2 mph - N/A   Overcast
9:55 AM 48.2 °F - 46.4 °F 93% 29.69 in 5.0 mi SW 10.4 mph - N/A   Overcast
10:15 AM 48.2 °F - 46.4 °F 93% 29.69 in 5.0 mi SSW 11.5 mph - N/A   Overcast
10:35 AM 48.2 °F - 46.4 °F 93% 29.69 in 5.0 mi SW 12.7 mph - N/A   Overcast
10:55 AM 48.2 °F - 46.4 °F 93% 29.70 in 5.0 mi SW 12.7 mph - N/A   Overcast
11:15 AM 48.2 °F - 46.4 °F 93% 29.69 in 7.0 mi SW 10.4 mph 16.1 mph N/A   Overcast
11:35 AM 48.2 °F - 46.4 °F 93% 29.69 in 7.0 mi SW 9.2 mph - N/A   Overcast
11:55 AM 48.2 °F - 44.6 °F 87% 29.68 in 7.0 mi WSW 10.4 mph - N/A   Overcast
12:15 PM 50.0 °F - 44.6 °F 82% 29.67 in 10.0 mi WSW 13.8 mph - N/A   Overcast
12:35 PM 50.0 °F - 44.6 °F 82% 29.67 in 10.0 mi SW 10.4 mph - N/A   Overcast
12:55 PM 50.0 °F - 44.6 °F 82% 29.67 in 10.0 mi SW 12.7 mph - N/A   Overcast
1:15 PM 48.2 °F - 44.6 °F 87% 29.66 in 10.0 mi SW 10.4 mph - N/A   Overcast
1:35 PM 48.2 °F - 42.8 °F 82% 29.65 in 10.0 mi SW 13.8 mph - N/A   Overcast
1:55 PM 48.2 °F - 42.8 °F 82% 29.65 in 10.0 mi WSW 11.5 mph - N/A   Overcast
2:15 PM 48.2 °F - 42.8 °F 82% 29.64 in 10.0 mi WSW 12.7 mph - N/A   Overcast
2:35 PM 48.2 °F - 42.8 °F 82% 29.63 in 10.0 mi West 11.5 mph - N/A   Overcast
2:55 PM 46.4 °F 41.1 °F 42.8 °F 87% 29.64 in 10.0 mi West 11.5 mph - N/A   Overcast
3:15 PM 44.6 °F 40.7 °F 41.0 °F 87% 29.65 in 5.0 mi WNW 6.9 mph - N/A   Overcast
3:35 PM 44.6 °F 39.7 °F 41.0 °F 87% 29.66 in 5.0 mi West 9.2 mph - N/A   Overcast
3:55 PM 44.6 °F 39.7 °F 41.0 °F 87% 29.67 in 7.0 mi West 9.2 mph - N/A   Overcast
4:15 PM 44.6 °F 40.2 °F 41.0 °F 87% 29.67 in 7.0 mi West 8.1 mph - N/A   Overcast
4:35 PM 42.8 °F 38.6 °F 41.0 °F 93% 29.67 in 7.0 mi West 6.9 mph - N/A   Overcast
4:55 PM 42.8 °F 38.6 °F 41.0 °F 93% 29.68 in 7.0 mi West 6.9 mph - N/A   Overcast
5:15 PM 42.8 °F 38.6 °F 41.0 °F 93% 29.69 in 7.0 mi West 6.9 mph - N/A   Overcast
5:35 PM 42.8 °F 37.5 °F 41.0 °F 93% 29.69 in 7.0 mi WNW 9.2 mph - N/A   Overcast
5:55 PM 41.0 °F 35.8 °F 39.2 °F 93% 29.69 in 7.0 mi WNW 8.1 mph - N/A   Overcast
6:15 PM 41.0 °F 36.4 °F 39.2 °F 93% 29.69 in 7.0 mi West 6.9 mph - N/A   Overcast
6:35 PM 41.0 °F 35.8 °F 37.4 °F 87% 29.70 in 7.0 mi West 8.1 mph - N/A   Overcast
6:55 PM 41.0 °F 35.2 °F 37.4 °F 87% 29.70 in 7.0 mi West 9.2 mph - N/A   Overcast
7:15 PM 41.0 °F 35.2 °F 37.4 °F 87% 29.70 in 7.0 mi WNW 9.2 mph - N/A   Overcast
7:35 PM 39.2 °F 35.0 °F 37.4 °F 93% 29.71 in 7.0 mi West 5.8 mph - N/A   Overcast
7:55 PM 39.2 °F 34.2 °F 37.4 °F 93% 29.72 in 7.0 mi West 6.9 mph - N/A   Overcast
8:15 PM 39.2 °F 34.2 °F 37.4 °F 93% 29.72 in 10.0 mi West 6.9 mph - N/A   Overcast
8:35 PM 39.2 °F 35.0 °F 37.4 °F 93% 29.72 in 10.0 mi West 5.8 mph - N/A   Overcast
8:55 PM 39.2 °F 35.0 °F 37.4 °F 93% 29.72 in 10.0 mi West 5.8 mph - N/A   Overcast
9:35 PM 39.2 °F 34.2 °F 35.6 °F 87% 29.74 in 10.0 mi WNW 6.9 mph - N/A   Overcast
9:55 PM 39.2 °F 33.6 °F 35.6 °F 87% 29.74 in 10.0 mi WNW 8.1 mph - N/A   Overcast
10:15 PM 39.2 °F 35.9 °F 35.6 °F 87% 29.74 in 10.0 mi West 4.6 mph - N/A   Overcast
10:35 PM 37.4 °F 33.8 °F 35.6 °F 93% 29.74 in 7.0 mi West 4.6 mph - N/A   Overcast
10:55 PM 37.4 °F 32.8 °F 35.6 °F 93% 29.74 in 7.0 mi West 5.8 mph - N/A   Overcast
11:15 PM 37.4 °F 33.8 °F 35.6 °F 93% 29.74 in 7.0 mi West 4.6 mph - N/A   Overcast
11:55 PM 37.4 °F 33.8 °F 35.6 °F 93% 29.74 in 7.0 mi West 4.6 mph - N/A   Overcast